Wind_Speed
5 4 3 3 4 5 6 7 8 8 7 7 7 7 7 7 7 6 6 6 6 6 5 5 4 4 4 4 3 4 4 4 4 4 4 5 5 5 6 6 7 7 7
4 3 3 3 4 5 5 6 7 7 7 6 6 6 6 6 6 6 6 6 5 5 5 5 5 4 4 4 4 3 3 3 4 4 4 4 5 5 6 6 6 6 7
4 3 3 3 4 4 5 5 5 5 5 5 5 6 5 5 5 5 5 5 6 6 6 5 5 4 4 4 3 3 3 3 4 3 4 4 5 5 6 6 6 6 7
4 2 2 3 2 3 3 3 4 4 4 5 5 5 5 5 5 5 5 5 6 6 5 5 5 4 4 4 3 3 3 3 3 3 3 4 4 4 5 5 6 6 7
4 2 1 2 2 1 2 2 3 2 3 3 4 4 4 4 4 5 5 5 5 5 5 5 4 4 3 3 3 2 3 3 2 3 3 3 3 4 4 5 5 6 6
4 3 1 1 1 0 1 1 1 1 2 2 2 3 3 3 3 4 4 4 5 5 4 4 4 3 2 2 2 2 2 2 2 2 3 3 3 3 3 4 5 6 6
4 3 1 0 1 2 2 2 1 1 1 1 1 2 2 3 3 3 3 3 4 4 4 4 4 3 2 2 2 2 2 2 2 3 3 3 3 3 3 4 4 5 5
5 3 2 1 1 2 3 3 2 2 2 1 1 1 1 2 2 2 3 3 4 4 4 4 3 3 2 2 2 2 2 2 2 2 2 2 3 3 3 3 3 4 5
7 5 3 2 2 3 3 4 3 3 3 3 2 1 0 1 1 2 2 2 3 4 4 4 3 3 2 2 2 2 2 2 2 2 2 2 2 2 3 3 3 3 4
8 6 5 3 2 3 4 5 5 4 4 4 3 2 1 1 1 1 1 1 2 3 3 4 3 3 2 2 2 2 2 2 2 2 2 2 2 2 2 3 3 3 3
8 6 5 4 3 3 4 5 6 5 5 5 4 3 2 2 2 1 1 1 2 2 3 3 3 3 2 2 2 2 2 2 3 2 2 2 2 2 2 2 2 3 3
9 7 6 4 4 3 4 5 6 6 6 6 6 5 4 3 2 1 1 1 1 1 2 2 2 2 2 2 2 2 1 2 2 2 2 2 2 2 2 2 2 2 3
10 8 6 5 4 3 4 5 6 6 6 7 7 6 5 4 3 2 2 1 1 0 1 1 2 2 2 1 1 1 1 1 1 2 1 2 2 2 2 2 2 2 2
11 9 7 6 5 4 4 5 6 7 7 7 7 6 6 5 4 3 2 1 1 1 0 0 1 1 1 1 1 0 1 1 1 1 1 1 1 1 1 2 2 2 2
12 9 7 6 6 5 5 5 6 8 8 8 8 7 6 6 5 4 3 2 2 2 1 1 0 1 1 1 1 1 1 1 1 1 1 0 1 1 1 1 2 2 3
12 10 9 7 6 5 5 5 6 7 9 9 8 7 7 6 5 5 4 4 3 2 2 1 1 0 1 0 1 1 1 1 1 0 0 0 0 1 1 2 2 3 3
12 11 9 7 5 5 6 6 7 7 9 9 9 8 7 7 6 6 5 5 4 3 2 2 2 1 0 0 0 0 1 1 1 0 0 0 1 1 2 2 2 3 4
12 11 8 6 5 5 6 6 7 8 9 10 10 9 8 8 7 7 6 6 6 4 3 2 2 2 1 1 1 0 1 1 1 1 0 1 1 1 2 2 3 3 4
12 11 8 6 6 6 6 6 7 8 9 10 10 10 9 9 8 7 7 7 7 5 5 3 2 2 2 1 1 1 0 0 0 1 1 1 1 2 2 3 3 4 4
12 10 8 5 6 6 6 6 7 7 8 9 10 10 10 9 8 8 8 8 7 7 6 4 3 3 3 2 2 2 1 1 1 1 1 1 2 2 2 2 3 4 4
12 10 6 3 2 3 4 5 6 7 7 9 10 10 10 10 9 9 9 9 8 8 7 6 5 5 5 4 3 3 3 2 2 2 2 2 2 2 3 3 4 4 5
11 9 5 2 3 3 3 4 5 6 7 8 9 10 10 9 9 10 11 10 9 8 8 7 6 6 6 5 5 5 4 4 4 4 3 3 3 3 4 4 5 5 5
10 7 4 2 3 4 4 4 5 6 7 8 9 10 11 11 10 10 10 11 11 10 9 8 7 7 7 7 7 7 7 6 6 6 5 5 5 5 5 5 6 6 7
8 6 3 1 2 4 5 5 5 6 6 8 8 9 10 11 11 11 11 11 11 11 10 10 9 9 8 9 9 9 8 8 8 7 7 8 7 7 7 7 8 8 9
7 5 2 0 1 3 5 5 6 6 7 7 8 9 11 11 11 11 11 11 11 11 11 11 11 10 10 10 10 10 10 10 10 10 10 10 10 10 10 10 10 10 10
6 4 2 1 1 2 3 4 5 6 7 8 9 10 10 11 11 11 11 11 11 12 12 12 13 12 12 12 12 12 12 13 13 12 12 13 13 13 13 13 13 13 13
Wind_Direction
78 90 94 93 94 100 100 99 99 95 87 75 64 55 51 50 46 40 38 38 36 34 35 40 44 46 48 52 57 66 72 79 88 84 81 80 80 85 88 95 97 98 100
60 80 96 98 98 99 101 100 98 94 88 78 70 61 53 48 43 39 37 38 37 34 34 36 37 35 41 48 55 65 71 78 88 84 81 83 85 89 94 99 101 102 105
48 65 97 101 98 94 97 102 102 95 88 80 73 65 55 50 44 40 39 36 31 29 29 28 29 32 36 41 48 60 70 78 82 83 84 88 93 96 99 101 103 104 105
39 50 90 100 97 86 88 98 103 98 86 80 73 63 55 51 46 42 38 32 28 22 23 24 27 29 33 40 53 66 74 78 78 84 86 94 99 103 104 107 111 108 106
33 29 75 108 118 94 88 102 105 103 95 80 71 61 52 49 46 41 35 31 28 23 24 22 24 27 32 46 56 66 69 78 74 83 94 102 107 110 110 114 117 114 110
26 24 44 107 164 162 154 139 124 111 103 89 75 60 50 48 46 40 34 29 29 26 25 21 21 27 39 52 53 61 71 79 77 86 96 108 114 116 116 115 119 121 117
12 15 22 333 245 234 221 208 199 172 167 151 115 75 54 46 41 38 30 26 23 20 17 16 18 32 46 50 48 56 70 80 83 89 95 106 117 115 119 120 119 128 125
3 8 3 329 260 239 237 229 226 208 204 198 180 131 66 42 27 24 24 18 15 13 11 10 24 35 49 50 45 41 52 67 79 83 88 103 119 115 118 122 123 131 130
359 355 351 330 278 248 239 230 222 222 228 223 209 205 189 28 18 18 7 8 12 13 12 12 19 22 33 42 46 42 50 51 57 55 79 104 118 120 132 139 136 139 137
352 351 350 332 295 261 243 230 221 223 225 225 220 227 241 258 294 345 348 9 21 18 18 19 19 21 28 39 47 47 44 41 42 52 75 100 122 134 144 149 154 156 147
348 345 347 337 310 277 245 230 226 223 219 218 222 231 242 247 252 311 312 337 28 29 28 26 20 24 32 37 40 44 35 35 46 54 80 105 125 139 153 158 163 163 164
341 337 330 325 302 273 238 231 228 224 220 220 224 231 232 234 233 264 286 296 48 43 29 24 16 15 21 24 30 44 39 44 54 68 85 111 132 148 171 176 180 179 182
337 333 322 314 300 273 250 235 233 226 222 222 223 230 230 229 231 244 277 259 177 95 27 14 12 12 14 18 18 42 51 45 54 72 86 111 139 159 182 197 204 205 205
333 329 319 304 293 277 258 241 232 225 224 223 220 225 226 227 227 229 251 235 206 179 170 347 348 12 22 0 333 322 17 40 57 72 85 132 163 175 189 205 210 214 214
332 326 324 298 280 263 251 246 233 224 220 221 216 218 223 227 226 223 225 231 227 201 189 216 318 14 11 355 346 0 32 43 36 63 75 128 195 204 206 212 216 222 227
331 322 319 294 270 256 245 242 232 222 220 217 212 216 218 222 227 224 219 223 224 208 195 195 200 358 39 15 4 16 56 46 45 34 38 128 232 242 262 254 241 244 244
328 322 314 296 269 254 245 235 226 219 215 213 211 214 217 221 225 228 224 220 216 208 195 194 189 188 134 165 101 67 62 55 64 52 352 266 271 267 273 275 262 260 262
328 326 311 291 267 254 250 236 222 214 213 214 211 210 215 221 225 227 224 218 217 215 205 199 194 205 211 180 140 73 40 66 76 53 4 314 303 289 279 278 276 272 269
331 328 317 286 274 262 250 241 218 214 219 215 213 215 219 218 220 225 219 211 212 213 210 210 209 215 226 220 228 250 315 46 56 25 8 336 316 299 287 283 282 277 275
332 329 323 308 268 257 250 244 218 213 216 212 214 218 219 220 220 219 216 210 209 214 216 220 228 235 238 231 233 246 266 288 319 340 338 333 325 306 290 290 285 285 282
337 336 334 330 261 239 237 236 210 208 206 209 215 215 218 225 227 221 216 212 213 219 224 228 232 241 236 234 241 249 263 279 289 299 301 303 307 302 292 288 285 284 285
336 329 318 270 239 218 221 224 200 203 208 214 220 220 218 223 227 224 220 219 221 226 231 232 235 241 239 243 249 254 264 272 283 285 284 286 285 288 288 287 288 288 288
334 326 306 246 213 206 207 208 202 202 206 211 218 220 216 218 221 227 227 223 224 229 231 233 238 244 247 247 250 259 265 270 276 275 273 278 280 280 283 287 290 292 291
331 333 319 263 199 201 203 216 216 207 209 214 217 217 217 220 224 229 231 229 228 230 234 237 243 249 251 250 250 257 263 268 273 272 268 269 272 279 282 284 288 292 294
330 337 2 297 213 211 209 218 220 213 215 220 222 222 221 222 225 229 233 232 230 232 235 239 246 251 254 254 253 257 261 264 269 271 271 271 273 277 279 282 285 289 293
337 357 19 43 160 186 195 207 216 220 223 228 229 229 229 229 228 230 234 235 234 237 240 243 248 252 254 256 257 260 263 263 265 268 270 271 272 274 276 279 280 283 285
Height
5883 5883 5884 5884 5885 5886 5886 5887 5888 5889 5890 5891 5891 5892 5892 5893 5893 5894 5894 5894 5894 5894 5894 5894 5894 5894 5894 5894 5894 5894 5894 5895 5895 5895 5895 5895 5896 5896 5896 5896 5897 5897 5898
5884 5884 5884 5885 5885 5886 5887 5888 5889 5889 5890 5891 5892 5892 5893 5893 5894 5894 5895 5895 5895 5895 5895 5894 5894 5894 5894 5894 5894 5895 5895 5895 5895 5895 5896 5896 5896 5897 5897 5897 5898 5898 5898
5884 5885 5885 5885 5886 5886 5887 5888 5889 5890 5891 5892 5892 5893 5893 5894 5894 5895 5895 5895 5895 5895 5895 5895 5895 5895 5895 5895 5895 5895 5895 5896 5896 5896 5896 5897 5897 5897 5898 5898 5899 5899 5899
5885 5885 5885 5885 5886 5886 5887 5888 5889 5890 5891 5892 5892 5893 5894 5894 5894 5895 5895 5895 5895 5895 5895 5895 5895 5895 5895 5895 5895 5895 5896 5896 5896 5897 5897 5898 5898 5898 5899 5899 5899 5900 5900
5885 5885 5885 5885 5886 5886 5887 5888 5889 5890 5891 5892 5892 5893 5894 5894 5894 5895 5895 5895 5895 5895 5895 5895 5895 5895 5895 5895 5896 5896 5896 5896 5897 5897 5898 5898 5898 5899 5899 5899 5900 5900 5901
5885 5885 5885 5885 5885 5886 5887 5888 5888 5889 5890 5891 5892 5893 5893 5894 5894 5895 5895 5895 5895 5895 5895 5895 5895 5895 5895 5896 5896 5896 5896 5897 5897 5898 5898 5898 5899 5899 5899 5900 5900 5901 5901
5885 5885 5885 5885 5885 5886 5886 5887 5888 5889 5890 5891 5892 5893 5893 5894 5894 5895 5895 5895 5895 5896 5896 5896 5896 5896 5896 5896 5896 5897 5897 5897 5898 5898 5898 5899 5899 5899 5900 5900 5900 5901 5902
5885 5885 5884 5884 5884 5885 5886 5887 5888 5889 5890 5890 5891 5892 5893 5894 5894 5894 5895 5895 5895 5896 5896 5896 5896 5896 5896 5896 5897 5897 5897 5898 5898 5898 5898 5899 5899 5900 5900 5901 5901 5901 5902
5885 5884 5884 5884 5884 5884 5885 5886 5887 5888 5889 5890 5891 5892 5893 5894 5894 5894 5895 5895 5896 5896 5896 5896 5896 5897 5897 5897 5897 5897 5898 5898 5898 5898 5899 5899 5900 5900 5900 5901 5901 5902 5903
5885 5884 5883 5883 5884 5884 5884 5885 5886 5887 5889 5890 5891 5892 5893 5893 5894 5894 5895 5895 5896 5896 5897 5897 5897 5897 5897 5897 5898 5898 5898 5898 5899 5899 5899 5900 5900 5901 5901 5901 5902 5903 5903
5885 5884 5883 5883 5883 5883 5884 5885 5886 5887 5888 5889 5890 5891 5892 5893 5894 5894 5895 5895 5896 5897 5897 5897 5897 5897 5898 5898 5898 5898 5898 5899 5899 5899 5899 5900 5901 5901 5902 5902 5903 5903 5904
5884 5883 5883 5882 5882 5882 5883 5884 5885 5886 5887 5888 5889 5890 5892 5893 5893 5894 5895 5896 5896 5897 5897 5897 5897 5898 5898 5898 5898 5899 5899 5899 5899 5900 5900 5900 5901 5901 5902 5902 5903 5903 5904
5884 5882 5881 5881 5881 5881 5882 5883 5883 5884 5885 5887 5888 5890 5891 5892 5893 5894 5895 5895 5896 5897 5897 5897 5898 5898 5898 5898 5899 5899 5899 5899 5900 5900 5900 5901 5901 5901 5902 5903 5903 5903 5904
5883 5881 5880 5880 5880 5880 5881 5881 5882 5883 5884 5885 5887 5888 5890 5891 5893 5893 5894 5895 5896 5897 5897 5898 5898 5898 5898 5899 5899 5899 5899 5900 5900 5900 5900 5901 5901 5902 5902 5903 5903 5903 5904
5881 5880 5879 5878 5879 5879 5879 5880 5880 5881 5882 5884 5885 5887 5889 5891 5892 5893 5894 5895 5896 5897 5897 5898 5898 5898 5899 5899 5899 5899 5900 5900 5900 5900 5900 5901 5901 5902 5902 5903 5903 5903 5904
5880 5878 5877 5876 5877 5877 5878 5878 5879 5879 5881 5883 5884 5886 5888 5890 5891 5892 5894 5895 5896 5896 5897 5897 5898 5898 5899 5900 5900 5900 5900 5900 5900 5900 5900 5901 5901 5902 5902 5902 5903 5903 5903
5878 5876 5875 5874 5875 5876 5876 5877 5877 5878 5880 5882 5883 5885 5887 5889 5890 5892 5893 5894 5895 5896 5897 5898 5898 5899 5899 5900 5900 5900 5900 5900 5900 5900 5901 5901 5901 5902 5902 5902 5903 5903 5903
5876 5875 5873 5873 5873 5874 5875 5875 5876 5877 5879 5881 5883 5885 5886 5888 5889 5891 5892 5893 5894 5895 5897 5898 5898 5899 5899 5900 5900 5900 5900 5901 5901 5901 5901 5901 5901 5901 5902 5902 5902 5902 5903
5874 5872 5871 5871 5871 5872 5873 5874 5875 5876 5878 5880 5882 5883 5885 5887 5888 5890 5891 5892 5893 5895 5896 5897 5898 5899 5899 5900 5900 5901 5901 5901 5901 5901 5901 5901 5901 5901 5901 5902 5902 5902 5902
5873 5871 5869 5868 5869 5870 5872 5873 5874 5875 5876 5878 5881 5882 5884 5886 5887 5889 5890 5891 5893 5894 5896 5897 5898 5898 5899 5900 5900 5901 5901 5901 5901 5901 5901 5901 5901 5901 5901 5901 5901 5901 5901
5871 5870 5868 5868 5870 5870 5871 5872 5873 5874 5876 5878 5880 5881 5883 5885 5886 5888 5889 5891 5892 5894 5895 5896 5897 5898 5899 5899 5900 5901 5901 5901 5901 5901 5901 5901 5901 5901 5901 5901 5901 5900 5900
5870 5869 5868 5868 5869 5869 5870 5871 5872 5874 5875 5877 5879 5880 5882 5884 5885 5887 5888 5890 5892 5893 5894 5895 5896 5897 5898 5899 5899 5900 5901 5901 5901 5901 5901 5901 5901 5900 5900 5900 5900 5900 5899
5869 5868 5867 5867 5868 5869 5870 5871 5872 5873 5875 5876 5878 5879 5881 5883 5884 5886 5887 5888 5890 5892 5893 5894 5895 5896 5897 5898 5898 5899 5900 5900 5900 5900 5900 5900 5900 5900 5899 5899 5899 5898 5898
5868 5867 5867 5867 5867 5868 5869 5871 5872 5873 5874 5875 5877 5878 5880 5881 5883 5884 5886 5887 5889 5890 5892 5893 5894 5895 5895 5896 5897 5898 5898 5898 5898 5899 5899 5898 5898 5898 5898 5898 5897 5897 5896
5868 5866 5866 5866 5867 5867 5869 5870 5871 5872 5873 5874 5875 5877 5878 5879 5881 5883 5884 5885 5887 5889 5890 5891 5892 5893 5894 5894 5895 5895 5896 5896 5896 5897 5897 5897 5896 5896 5896 5896 5895 5895 5894
5867 5866 5866 5866 5866 5867 5868 5869 5870 5871 5872 5873 5874 5875 5876 5878 5879 5881 5882 5883 5885 5887 5888 5889 5890 5891 5892 5892 5893 5893 5894 5894 5894 5894 5894 5894 5894 5894 5894 5893 5893 5892 5891